Year,Month,Day,Hour,Minute,Value (Times are PST for temperature in C)
2007,09,22,00,00,10.60
2007,09,22,00,01,10.50
2007,09,22,00,02,10.50
2007,09,22,00,03,10.40
2007,09,22,00,04,10.40
2007,09,22,00,05,10.40
2007,09,22,00,06,10.30
2007,09,22,00,07,10.20
2007,09,22,00,08,10.20
2007,09,22,00,09,10.10
2007,09,22,00,10,10.10
2007,09,22,00,11,10.10
2007,09,22,00,12,10.10
2007,09,22,00,13,10.10
2007,09,22,00,14,10.10
2007,09,22,00,15,10.20
2007,09,22,00,16,10.20
2007,09,22,00,17,10.20
2007,09,22,00,18,10.20
2007,09,22,00,19,10.20
2007,09,22,00,20,10.30
2007,09,22,00,21,10.30
2007,09,22,00,22,10.30
2007,09,22,00,23,10.30
2007,09,22,00,24,10.30
2007,09,22,00,25,10.30
2007,09,22,00,26,10.30
2007,09,22,00,27,10.40
2007,09,22,00,28,10.40
2007,09,22,00,29,10.40
2007,09,22,00,30,10.50
2007,09,22,00,31,10.50
2007,09,22,00,32,10.50
2007,09,22,00,33,10.50
2007,09,22,00,34,10.60
2007,09,22,00,35,10.60
2007,09,22,00,36,10.60
2007,09,22,00,37,10.60
2007,09,22,00,38,10.60
2007,09,22,00,39,10.60
2007,09,22,00,40,10.60
2007,09,22,00,41,10.60
2007,09,22,00,42,10.50
2007,09,22,00,43,10.50
2007,09,22,00,44,10.50
2007,09,22,00,45,10.50
2007,09,22,00,46,10.50
2007,09,22,00,47,10.50
2007,09,22,00,48,10.50
2007,09,22,00,49,10.50
2007,09,22,00,50,10.50
2007,09,22,00,51,10.50
2007,09,22,00,52,10.40
2007,09,22,00,53,10.40
2007,09,22,00,54,10.40
2007,09,22,00,55,10.40
2007,09,22,00,56,10.40
2007,09,22,00,57,10.40
2007,09,22,00,58,10.40
2007,09,22,00,59,10.40
2007,09,22,01,00,10.40
2007,09,22,01,01,10.40
2007,09,22,01,02,10.30
2007,09,22,01,03,10.30
2007,09,22,01,04,10.30
2007,09,22,01,05,10.30
2007,09,22,01,06,10.20
2007,09,22,01,07,10.20
2007,09,22,01,08,10.30
2007,09,22,01,09,10.30
2007,09,22,01,10,10.30
2007,09,22,01,11,10.30
2007,09,22,01,12,10.30
2007,09,22,01,13,10.30
2007,09,22,01,14,10.30
2007,09,22,01,15,10.30
2007,09,22,01,16,10.30
2007,09,22,01,17,10.30
2007,09,22,01,18,10.30
2007,09,22,01,19,10.30
2007,09,22,01,20,10.30
2007,09,22,01,21,10.30
2007,09,22,01,22,10.30
2007,09,22,01,23,10.30
2007,09,22,01,24,10.20
2007,09,22,01,25,10.20
2007,09,22,01,26,10.20
2007,09,22,01,27,10.20
2007,09,22,01,28,10.20
2007,09,22,01,29,10.20
2007,09,22,01,30,10.20
2007,09,22,01,31,10.10
2007,09,22,01,32,10.10
2007,09,22,01,33,10.10
2007,09,22,01,34,10.00
2007,09,22,01,35,10.00
2007,09,22,01,36,10.00
2007,09,22,01,37,10.00
2007,09,22,01,38,10.00
2007,09,22,01,39,10.00
2007,09,22,01,40,10.00
2007,09,22,01,41,10.00
2007,09,22,01,42,10.00
2007,09,22,01,43,10.00
2007,09,22,01,44,10.00
2007,09,22,01,45,10.10
2007,09,22,01,46,10.10
2007,09,22,01,47,10.10
2007,09,22,01,48,10.10
2007,09,22,01,49,10.10
2007,09,22,01,50,10.10
2007,09,22,01,51,10.10
2007,09,22,01,52,10.10
2007,09,22,01,53,10.20
2007,09,22,01,54,10.20
2007,09,22,01,55,10.20
2007,09,22,01,56,10.20
2007,09,22,01,57,10.20
2007,09,22,01,58,10.20
2007,09,22,01,59,10.20
2007,09,22,02,00,10.30
2007,09,22,02,01,10.30
2007,09,22,02,02,10.30
2007,09,22,02,03,10.20
2007,09,22,02,04,10.20
2007,09,22,02,05,10.20
2007,09,22,02,06,10.20
2007,09,22,02,07,10.20
2007,09,22,02,08,10.20
2007,09,22,02,09,10.30
2007,09,22,02,10,10.30
2007,09,22,02,11,10.30
2007,09,22,02,12,10.30
2007,09,22,02,13,10.30
2007,09,22,02,14,10.30
2007,09,22,02,15,10.30
2007,09,22,02,16,10.30
2007,09,22,02,17,10.40
2007,09,22,02,18,10.40
2007,09,22,02,19,10.30
2007,09,22,02,20,10.30
2007,09,22,02,21,10.30
2007,09,22,02,22,10.30
2007,09,22,02,23,10.30
2007,09,22,02,24,10.30
2007,09,22,02,25,10.30
2007,09,22,02,26,10.30
2007,09,22,02,27,10.30
2007,09,22,02,28,10.30
2007,09,22,02,29,10.30
2007,09,22,02,30,10.30
2007,09,22,02,31,10.20
2007,09,22,02,32,10.20
2007,09,22,02,33,10.20
2007,09,22,02,34,10.20
2007,09,22,02,35,10.20
2007,09,22,02,36,10.20
2007,09,22,02,37,10.20
2007,09,22,02,38,10.20
2007,09,22,02,39,10.20
2007,09,22,02,40,10.20
2007,09,22,02,41,10.20
2007,09,22,02,42,10.20
2007,09,22,02,43,10.20
2007,09,22,02,44,10.20
2007,09,22,02,45,10.20
2007,09,22,02,46,10.20
2007,09,22,02,47,10.20
2007,09,22,02,48,10.20
2007,09,22,02,49,10.20
2007,09,22,02,50,10.20
2007,09,22,02,51,10.20
2007,09,22,02,52,10.20
2007,09,22,02,53,10.20
2007,09,22,02,54,10.10
2007,09,22,02,55,10.10
2007,09,22,02,56,10.10
2007,09,22,02,57,10.10
2007,09,22,02,58,10.10
2007,09,22,02,59,10.10
2007,09,22,03,00,10.10
2007,09,22,03,01,10.10
2007,09,22,03,02,10.10
2007,09,22,03,03,10.10
2007,09,22,03,04,10.00
2007,09,22,03,05,10.00
2007,09,22,03,06,10.00
2007,09,22,03,07,9.90
2007,09,22,03,08,9.90
2007,09,22,03,09,9.90
2007,09,22,03,10,9.80
2007,09,22,03,11,9.80
2007,09,22,03,12,9.80
2007,09,22,03,13,9.70
2007,09,22,03,14,9.70
2007,09,22,03,15,9.70
2007,09,22,03,16,9.60
2007,09,22,03,17,9.60
2007,09,22,03,18,9.60
2007,09,22,03,19,9.50
2007,09,22,03,20,9.40
2007,09,22,03,21,9.40
2007,09,22,03,22,9.40
2007,09,22,03,23,9.40
2007,09,22,03,24,9.40
2007,09,22,03,25,9.40
2007,09,22,03,26,9.40
2007,09,22,03,27,9.30
2007,09,22,03,28,9.30
2007,09,22,03,29,9.30
2007,09,22,03,30,9.20
2007,09,22,03,31,9.20
2007,09,22,03,32,9.10
2007,09,22,03,33,9.10
2007,09,22,03,34,9.00
2007,09,22,03,35,9.00
2007,09,22,03,36,8.90
2007,09,22,03,37,8.80
2007,09,22,03,38,8.80
2007,09,22,03,39,8.70
2007,09,22,03,40,8.70
2007,09,22,03,41,8.60
2007,09,22,03,42,8.60
2007,09,22,03,43,8.50
2007,09,22,03,44,8.40
2007,09,22,03,45,8.40
2007,09,22,03,46,8.30
2007,09,22,03,47,8.30
2007,09,22,03,48,8.20
2007,09,22,03,49,8.20
2007,09,22,03,50,8.20
2007,09,22,03,51,8.10
2007,09,22,03,52,8.00
2007,09,22,03,53,8.00
2007,09,22,03,54,8.00
2007,09,22,03,55,8.00
2007,09,22,03,56,8.00
2007,09,22,03,57,8.00
2007,09,22,03,58,8.00
2007,09,22,03,59,8.00
2007,09,22,04,00,7.90
2007,09,22,04,01,7.90
2007,09,22,04,02,7.90
2007,09,22,04,03,7.80
2007,09,22,04,04,7.80
2007,09,22,04,05,7.80
2007,09,22,04,06,7.80
2007,09,22,04,07,7.70
2007,09,22,04,08,7.70
2007,09,22,04,09,7.70
2007,09,22,04,10,7.70
2007,09,22,04,11,7.70
2007,09,22,04,12,7.60
2007,09,22,04,13,7.60
2007,09,22,04,14,7.60
2007,09,22,04,15,7.60
2007,09,22,04,16,7.60
2007,09,22,04,17,7.50
2007,09,22,04,18,7.50
2007,09,22,04,19,7.50
2007,09,22,04,20,7.60
2007,09,22,04,21,7.60
2007,09,22,04,22,7.70
2007,09,22,04,23,7.70
2007,09,22,04,24,7.70
2007,09,22,04,25,7.80
2007,09,22,04,26,7.80
2007,09,22,04,27,7.90
2007,09,22,04,28,7.90
2007,09,22,04,29,7.90
2007,09,22,04,30,8.00
2007,09,22,04,31,8.00
2007,09,22,04,32,8.10
2007,09,22,04,33,8.10
2007,09,22,04,34,8.20
2007,09,22,04,35,8.20
2007,09,22,04,36,8.20
2007,09,22,04,37,8.20
2007,09,22,04,38,8.30
2007,09,22,04,39,8.30
2007,09,22,04,40,8.30
2007,09,22,04,41,8.30
2007,09,22,04,42,8.30
2007,09,22,04,43,8.30
2007,09,22,04,44,8.30
2007,09,22,04,45,8.30
2007,09,22,04,46,8.30
2007,09,22,04,47,8.20
2007,09,22,04,48,8.20
2007,09,22,04,49,8.10
2007,09,22,04,50,8.00
2007,09,22,04,51,7.90
2007,09,22,04,52,7.80
2007,09,22,04,53,7.70
2007,09,22,04,54,7.60
2007,09,22,04,55,7.50
2007,09,22,04,56,7.40
2007,09,22,04,57,7.30
2007,09,22,04,58,7.30
2007,09,22,04,59,7.30
2007,09,22,05,00,7.30
2007,09,22,05,01,7.20
2007,09,22,05,02,7.30
2007,09,22,05,03,7.30
2007,09,22,05,04,7.40
2007,09,22,05,05,7.40
2007,09,22,05,06,7.50
2007,09,22,05,07,7.60
2007,09,22,05,08,7.70
2007,09,22,05,09,7.80
2007,09,22,05,10,7.90
2007,09,22,05,11,8.00
2007,09,22,05,12,8.10
2007,09,22,05,13,8.20
2007,09,22,05,14,8.30
2007,09,22,05,15,8.40
2007,09,22,05,16,8.50
2007,09,22,05,17,8.50
2007,09,22,05,18,8.60
2007,09,22,05,19,8.60
2007,09,22,05,20,8.60
2007,09,22,05,21,8.60
2007,09,22,05,22,8.60
2007,09,22,05,23,8.70
2007,09,22,05,24,8.70
2007,09,22,05,25,8.70
2007,09,22,05,26,8.70
2007,09,22,05,27,8.70
2007,09,22,05,28,8.60
2007,09,22,05,29,8.70
2007,09,22,05,30,8.70
2007,09,22,05,31,8.60
2007,09,22,05,32,8.60
2007,09,22,05,33,8.60
2007,09,22,05,34,8.60
2007,09,22,05,35,8.50
2007,09,22,05,36,8.50
2007,09,22,05,37,8.50
2007,09,22,05,38,8.50
2007,09,22,05,39,8.50
2007,09,22,05,40,8.40
2007,09,22,05,41,8.40
2007,09,22,05,42,8.40
2007,09,22,05,43,8.30
2007,09,22,05,44,8.30
2007,09,22,05,45,8.20
2007,09,22,05,46,8.20
2007,09,22,05,47,8.10
2007,09,22,05,48,8.10
2007,09,22,05,49,8.00
2007,09,22,05,50,7.90
2007,09,22,05,51,7.90
2007,09,22,05,52,7.80
2007,09,22,05,53,7.80
2007,09,22,05,54,7.70
2007,09,22,05,55,7.70
2007,09,22,05,56,7.60
2007,09,22,05,57,7.60
2007,09,22,05,58,7.60
2007,09,22,05,59,7.60
2007,09,22,06,00,7.50
2007,09,22,06,01,7.50
2007,09,22,06,02,7.40
2007,09,22,06,03,7.30
2007,09,22,06,04,7.30
2007,09,22,06,05,7.20
2007,09,22,06,06,7.20
2007,09,22,06,07,7.20
2007,09,22,06,08,7.30
2007,09,22,06,09,7.30
2007,09,22,06,10,7.40
2007,09,22,06,11,7.40
2007,09,22,06,12,7.40
2007,09,22,06,13,7.40
2007,09,22,06,14,7.40
2007,09,22,06,15,7.40
2007,09,22,06,16,7.40
2007,09,22,06,17,7.40
2007,09,22,06,18,7.30
2007,09,22,06,19,7.30
2007,09,22,06,20,7.20
2007,09,22,06,21,7.20
2007,09,22,06,22,7.20
2007,09,22,06,23,7.10
2007,09,22,06,24,7.10
2007,09,22,06,25,7.10
2007,09,22,06,26,7.00
2007,09,22,06,27,7.00
2007,09,22,06,28,6.90
2007,09,22,06,29,6.90
2007,09,22,06,30,6.80
2007,09,22,06,31,6.80
2007,09,22,06,32,6.70
2007,09,22,06,33,6.70
2007,09,22,06,34,6.70
2007,09,22,06,35,6.60
2007,09,22,06,36,6.60
2007,09,22,06,37,6.50
2007,09,22,06,38,6.50
2007,09,22,06,39,6.40
2007,09,22,06,40,6.40
2007,09,22,06,41,6.40
2007,09,22,06,42,6.40
2007,09,22,06,43,6.40
2007,09,22,06,44,6.40
2007,09,22,06,45,6.50
2007,09,22,06,46,6.50
2007,09,22,06,47,6.50
2007,09,22,06,48,6.60
2007,09,22,06,49,6.60
2007,09,22,06,50,6.70
2007,09,22,06,51,6.80
2007,09,22,06,52,6.80
2007,09,22,06,53,6.90
2007,09,22,06,54,6.90
2007,09,22,06,55,7.00
2007,09,22,06,56,7.10
2007,09,22,06,57,7.20
2007,09,22,06,58,7.30
2007,09,22,06,59,7.30
2007,09,22,07,00,7.50
2007,09,22,07,01,7.60
2007,09,22,07,02,7.70
2007,09,22,07,03,7.80
2007,09,22,07,04,7.90
2007,09,22,07,05,8.00
2007,09,22,07,06,8.10
2007,09,22,07,07,8.20
2007,09,22,07,08,8.20
2007,09,22,07,09,8.20
2007,09,22,07,10,8.20
2007,09,22,07,11,8.20
2007,09,22,07,12,8.20
2007,09,22,07,13,8.20
2007,09,22,07,14,8.20
2007,09,22,07,15,8.20
2007,09,22,07,16,8.10
2007,09,22,07,17,8.10
2007,09,22,07,18,8.10
2007,09,22,07,19,8.00
2007,09,22,07,20,7.90
2007,09,22,07,21,7.90
2007,09,22,07,22,7.80
2007,09,22,07,23,7.80
2007,09,22,07,24,7.70
2007,09,22,07,25,7.60
2007,09,22,07,26,7.50
2007,09,22,07,27,7.40
2007,09,22,07,28,7.40
2007,09,22,07,29,7.40
2007,09,22,07,30,7.40
2007,09,22,07,31,7.40
2007,09,22,07,32,7.40
2007,09,22,07,33,7.40
2007,09,22,07,34,7.50
2007,09,22,07,35,7.60
2007,09,22,07,36,7.80
2007,09,22,07,37,7.90
2007,09,22,07,38,8.00
2007,09,22,07,39,8.20
2007,09,22,07,40,8.30
2007,09,22,07,41,8.50
2007,09,22,07,42,8.60
2007,09,22,07,43,8.60
2007,09,22,07,44,8.70
2007,09,22,07,45,8.70
2007,09,22,07,46,8.80
2007,09,22,07,47,8.80
2007,09,22,07,48,8.80
2007,09,22,07,49,8.80
2007,09,22,07,50,8.90
2007,09,22,07,51,8.90
2007,09,22,07,52,8.90
2007,09,22,07,53,9.00
2007,09,22,07,54,9.00
2007,09,22,07,55,9.10
2007,09,22,07,56,9.10
2007,09,22,07,57,9.10
2007,09,22,07,58,9.10
2007,09,22,07,59,9.10
2007,09,22,08,00,9.10
2007,09,22,08,01,9.10
2007,09,22,08,02,9.10
2007,09,22,08,03,9.00
2007,09,22,08,04,9.00
2007,09,22,08,05,9.00
2007,09,22,08,06,9.00
2007,09,22,08,07,9.00
2007,09,22,08,08,9.00
2007,09,22,08,09,9.00
2007,09,22,08,10,9.00
2007,09,22,08,11,9.00
2007,09,22,08,12,9.00
2007,09,22,08,13,9.00
2007,09,22,08,14,8.90
2007,09,22,08,15,8.90
2007,09,22,08,16,8.90
2007,09,22,08,17,8.90
2007,09,22,08,18,8.90
2007,09,22,08,19,8.90
2007,09,22,08,20,8.90
2007,09,22,08,21,9.00
2007,09,22,08,22,9.00
2007,09,22,08,23,9.10
2007,09,22,08,24,9.10
2007,09,22,08,25,9.20
2007,09,22,08,26,9.20
2007,09,22,08,27,9.30
2007,09,22,08,28,9.50
2007,09,22,08,29,9.60
2007,09,22,08,30,9.80
2007,09,22,08,31,9.80
2007,09,22,08,32,9.90
2007,09,22,08,33,10.00
2007,09,22,08,34,10.10
2007,09,22,08,35,10.20
2007,09,22,08,36,10.30
2007,09,22,08,37,10.40
2007,09,22,08,38,10.40
2007,09,22,08,39,10.50
2007,09,22,08,40,10.70
2007,09,22,08,41,10.80
2007,09,22,08,42,10.80
2007,09,22,08,43,10.80
2007,09,22,08,44,10.90
2007,09,22,08,45,11.00
2007,09,22,08,46,11.00
2007,09,22,08,47,11.10
2007,09,22,08,48,11.20
2007,09,22,08,49,11.20
2007,09,22,08,50,11.30
2007,09,22,08,51,11.30
2007,09,22,08,52,11.30
2007,09,22,08,53,11.30
2007,09,22,08,54,11.30
2007,09,22,08,55,11.40
2007,09,22,08,56,11.40
2007,09,22,08,57,11.50
2007,09,22,08,58,11.50
2007,09,22,08,59,11.60
2007,09,22,09,00,11.60
2007,09,22,09,01,11.60
2007,09,22,09,02,11.50
2007,09,22,09,03,11.50
2007,09,22,09,04,11.50
2007,09,22,09,05,11.50
2007,09,22,09,06,11.50
2007,09,22,09,07,11.50
2007,09,22,09,08,11.50
2007,09,22,09,09,11.50
2007,09,22,09,10,11.40
2007,09,22,09,11,11.40
2007,09,22,09,12,11.40
2007,09,22,09,13,11.30
2007,09,22,09,14,11.40
2007,09,22,09,15,11.40
2007,09,22,09,16,11.40
2007,09,22,09,17,11.50
2007,09,22,09,18,11.60
2007,09,22,09,19,11.60
2007,09,22,09,20,11.60
2007,09,22,09,21,11.60
2007,09,22,09,22,11.60
2007,09,22,09,23,11.60
2007,09,22,09,24,11.60
2007,09,22,09,25,11.60
2007,09,22,09,26,11.60
2007,09,22,09,27,11.50
2007,09,22,09,28,11.50
2007,09,22,09,29,11.50
2007,09,22,09,30,11.50
2007,09,22,09,31,11.40
2007,09,22,09,32,11.40
2007,09,22,09,33,11.40
2007,09,22,09,34,11.40
2007,09,22,09,35,11.40
2007,09,22,09,36,11.40
2007,09,22,09,37,11.40
2007,09,22,09,38,11.40
2007,09,22,09,39,11.40
2007,09,22,09,40,11.40
2007,09,22,09,41,11.40
2007,09,22,09,42,11.40
2007,09,22,09,43,11.40
2007,09,22,09,44,11.50
2007,09,22,09,45,11.50
2007,09,22,09,46,11.60
2007,09,22,09,47,11.60
2007,09,22,09,48,11.60
2007,09,22,09,49,11.60
2007,09,22,09,50,11.60
2007,09,22,09,51,11.60
2007,09,22,09,52,11.60
2007,09,22,09,53,11.60
2007,09,22,09,54,11.60
2007,09,22,09,55,11.60
2007,09,22,09,56,11.60
2007,09,22,09,57,11.60
2007,09,22,09,58,11.60
2007,09,22,09,59,11.60
2007,09,22,10,00,11.60
2007,09,22,10,01,11.60
2007,09,22,10,02,11.60
2007,09,22,10,03,11.60
2007,09,22,10,04,11.60
2007,09,22,10,05,11.60
2007,09,22,10,06,11.70
2007,09,22,10,07,11.70
2007,09,22,10,08,11.70
2007,09,22,10,09,11.70
2007,09,22,10,10,11.80
2007,09,22,10,11,11.80
2007,09,22,10,12,11.80
2007,09,22,10,13,11.80
2007,09,22,10,14,11.90
2007,09,22,10,15,12.00
2007,09,22,10,16,12.00
2007,09,22,10,17,12.10
2007,09,22,10,18,12.10
2007,09,22,10,19,12.20
2007,09,22,10,20,12.20
2007,09,22,10,21,12.30
2007,09,22,10,22,12.30
2007,09,22,10,23,12.30
2007,09,22,10,24,12.40
2007,09,22,10,25,12.40
2007,09,22,10,26,12.50
2007,09,22,10,27,12.50
2007,09,22,10,28,12.50
2007,09,22,10,29,12.60
2007,09,22,10,30,12.60
2007,09,22,10,31,12.60
2007,09,22,10,32,12.60
2007,09,22,10,33,12.60
2007,09,22,10,34,12.60
2007,09,22,10,35,12.60
2007,09,22,10,36,12.70
2007,09,22,10,37,12.70
2007,09,22,10,38,12.70
2007,09,22,10,39,12.80
2007,09,22,10,40,12.80
2007,09,22,10,41,12.80
2007,09,22,10,42,12.80
2007,09,22,10,43,12.80
2007,09,22,10,44,12.80
2007,09,22,10,45,12.80
2007,09,22,10,46,12.80
2007,09,22,10,47,12.80
2007,09,22,10,48,12.80
2007,09,22,10,49,12.90
2007,09,22,10,50,12.90
2007,09,22,10,51,12.90
2007,09,22,10,52,13.00
2007,09,22,10,53,13.00
2007,09,22,10,54,13.10
2007,09,22,10,55,13.10
2007,09,22,10,56,13.10
2007,09,22,10,57,13.10
2007,09,22,10,58,13.10
2007,09,22,10,59,13.10
2007,09,22,11,00,13.10
2007,09,22,11,01,13.20
2007,09,22,11,02,13.30
2007,09,22,11,03,13.40
2007,09,22,11,04,13.40
2007,09,22,11,05,13.50
2007,09,22,11,06,13.60
2007,09,22,11,07,13.60
2007,09,22,11,08,13.70
2007,09,22,11,09,13.80
2007,09,22,11,10,13.90
2007,09,22,11,11,13.90
2007,09,22,11,12,13.90
2007,09,22,11,13,13.90
2007,09,22,11,14,13.90
2007,09,22,11,15,13.90
2007,09,22,11,16,13.90
2007,09,22,11,17,13.90
2007,09,22,11,18,13.90
2007,09,22,11,19,14.00
2007,09,22,11,20,14.00
2007,09,22,11,21,14.10
2007,09,22,11,22,14.20
2007,09,22,11,23,14.20
2007,09,22,11,24,14.20
2007,09,22,11,25,14.20
2007,09,22,11,26,14.20
2007,09,22,11,27,14.20
2007,09,22,11,28,14.30
2007,09,22,11,29,14.30
2007,09,22,11,30,14.30
2007,09,22,11,31,14.30
2007,09,22,11,32,14.40
2007,09,22,11,33,14.40
2007,09,22,11,34,14.40
2007,09,22,11,35,14.40
2007,09,22,11,36,14.50
2007,09,22,11,37,14.50
2007,09,22,11,38,14.60
2007,09,22,11,39,14.60
2007,09,22,11,40,14.70
2007,09,22,11,41,14.70
2007,09,22,11,42,14.70
2007,09,22,11,43,14.80
2007,09,22,11,44,14.90
2007,09,22,11,45,15.00
2007,09,22,11,46,15.00
2007,09,22,11,47,15.00
2007,09,22,11,48,15.00
2007,09,22,11,49,15.00
2007,09,22,11,50,14.90
2007,09,22,11,51,14.90
2007,09,22,11,52,14.90
2007,09,22,11,53,14.80
2007,09,22,11,54,14.80
2007,09,22,11,55,14.70
2007,09,22,11,56,14.70
2007,09,22,11,57,14.70
2007,09,22,11,58,14.60
2007,09,22,11,59,14.50
2007,09,22,12,00,14.50
2007,09,22,12,01,14.50
2007,09,22,12,02,14.60
2007,09,22,12,03,14.60
2007,09,22,12,04,14.70
2007,09,22,12,05,14.70
2007,09,22,12,06,14.80
2007,09,22,12,07,14.80
2007,09,22,12,08,14.80
2007,09,22,12,09,14.80
2007,09,22,12,10,14.90
2007,09,22,12,11,15.00
2007,09,22,12,12,15.00
2007,09,22,12,13,15.00
2007,09,22,12,14,15.00
2007,09,22,12,15,15.20
2007,09,22,12,16,15.30
2007,09,22,12,17,15.50
2007,09,22,12,18,15.50
2007,09,22,12,19,15.60
2007,09,22,12,20,15.60
2007,09,22,12,21,15.60
2007,09,22,12,22,15.70
2007,09,22,12,23,15.80
2007,09,22,12,24,15.80
2007,09,22,12,25,15.70
2007,09,22,12,26,15.60
2007,09,22,12,27,15.60
2007,09,22,12,28,15.50
2007,09,22,12,29,15.40
2007,09,22,12,30,15.40
2007,09,22,12,31,15.50
2007,09,22,12,32,15.50
2007,09,22,12,33,15.60
2007,09,22,12,34,15.60
2007,09,22,12,35,15.60
2007,09,22,12,36,15.70
2007,09,22,12,37,15.70
2007,09,22,12,38,15.70
2007,09,22,12,39,15.60
2007,09,22,12,40,15.60
2007,09,22,12,41,15.50
2007,09,22,12,42,15.40
2007,09,22,12,43,15.30
2007,09,22,12,44,15.20
2007,09,22,12,45,15.10
2007,09,22,12,46,15.00
2007,09,22,12,47,15.00
2007,09,22,12,48,15.00
2007,09,22,12,49,15.00
2007,09,22,12,50,15.00
2007,09,22,12,51,15.00
2007,09,22,12,52,15.00
2007,09,22,12,53,14.80
2007,09,22,12,54,14.80
2007,09,22,12,55,14.70
2007,09,22,12,56,14.70
2007,09,22,12,57,14.70
2007,09,22,12,58,14.60
2007,09,22,12,59,14.60
2007,09,22,13,00,14.50
2007,09,22,13,01,14.40
2007,09,22,13,02,14.40
2007,09,22,13,03,14.40
2007,09,22,13,04,14.40
2007,09,22,13,05,14.40
2007,09,22,13,06,14.30
2007,09,22,13,07,14.30
2007,09,22,13,08,14.30
2007,09,22,13,09,14.30
2007,09,22,13,10,14.20
2007,09,22,13,11,14.20
2007,09,22,13,12,14.10
2007,09,22,13,13,14.10
2007,09,22,13,14,14.10
2007,09,22,13,15,14.10
2007,09,22,13,16,14.10
2007,09,22,13,17,14.10
2007,09,22,13,18,14.10
2007,09,22,13,19,14.00
2007,09,22,13,20,14.00
2007,09,22,13,21,14.00
2007,09,22,13,22,14.00
2007,09,22,13,23,13.90
2007,09,22,13,24,13.90
2007,09,22,13,25,13.90
2007,09,22,13,26,13.90
2007,09,22,13,27,13.90
2007,09,22,13,28,13.90
2007,09,22,13,29,13.90
2007,09,22,13,30,13.90
2007,09,22,13,31,13.90
2007,09,22,13,32,13.90
2007,09,22,13,33,13.80
2007,09,22,13,34,13.80
2007,09,22,13,35,13.80
2007,09,22,13,36,13.80
2007,09,22,13,37,13.80
2007,09,22,13,38,13.80
2007,09,22,13,39,13.80
2007,09,22,13,40,13.80
2007,09,22,13,41,13.80
2007,09,22,13,42,13.80
2007,09,22,13,43,13.80
2007,09,22,13,44,13.80
2007,09,22,13,45,13.80
2007,09,22,13,46,13.70
2007,09,22,13,47,13.70
2007,09,22,13,48,13.70
2007,09,22,13,49,13.60
2007,09,22,13,50,13.60
2007,09,22,13,51,13.50
2007,09,22,13,52,13.40
2007,09,22,13,53,13.40
2007,09,22,13,54,13.30
2007,09,22,13,55,13.20
2007,09,22,13,56,13.10
2007,09,22,13,57,13.00
2007,09,22,13,58,13.00
2007,09,22,13,59,12.90
2007,09,22,14,00,12.80
2007,09,22,14,01,12.80
2007,09,22,14,02,12.70
2007,09,22,14,03,12.70
2007,09,22,14,04,12.70
2007,09,22,14,05,12.60
2007,09,22,14,06,12.60
2007,09,22,14,07,12.60
2007,09,22,14,08,12.60
2007,09,22,14,09,12.50
2007,09,22,14,10,12.50
2007,09,22,14,11,12.40
2007,09,22,14,12,12.40
2007,09,22,14,13,12.40
2007,09,22,14,14,12.30
2007,09,22,14,15,12.30
2007,09,22,14,16,12.30
2007,09,22,14,17,12.20
2007,09,22,14,18,12.20
2007,09,22,14,19,12.20
2007,09,22,14,20,12.20
2007,09,22,14,21,12.20
2007,09,22,14,22,12.20
2007,09,22,14,23,12.20
2007,09,22,14,24,12.10
2007,09,22,14,25,12.10
2007,09,22,14,26,12.10
2007,09,22,14,27,12.10
2007,09,22,14,28,12.00
2007,09,22,14,29,12.00
2007,09,22,14,30,12.00
2007,09,22,14,31,11.90
2007,09,22,14,32,11.90
2007,09,22,14,33,11.80
2007,09,22,14,34,11.80
2007,09,22,14,35,11.80
2007,09,22,14,36,11.70
2007,09,22,14,37,11.70
2007,09,22,14,38,11.60
2007,09,22,14,39,11.60
2007,09,22,14,40,11.60
2007,09,22,14,41,11.50
2007,09,22,14,42,11.50
2007,09,22,14,43,11.40
2007,09,22,14,44,11.40
2007,09,22,14,45,11.30
2007,09,22,14,46,11.30
2007,09,22,14,47,11.30
2007,09,22,14,48,11.30
2007,09,22,14,49,11.30
2007,09,22,14,50,11.30
2007,09,22,14,51,11.30
2007,09,22,14,52,11.30
2007,09,22,14,53,11.30
2007,09,22,14,54,11.30
2007,09,22,14,55,11.30
2007,09,22,14,56,11.30
2007,09,22,14,57,11.30
2007,09,22,14,58,11.30
2007,09,22,14,59,11.30
2007,09,22,15,00,11.30
2007,09,22,15,01,11.30
2007,09,22,15,02,11.30
2007,09,22,15,03,11.30
2007,09,22,15,04,11.30
2007,09,22,15,05,11.30
2007,09,22,15,06,11.30
2007,09,22,15,07,11.30
2007,09,22,15,08,11.20
2007,09,22,15,09,11.20
2007,09,22,15,10,11.20
2007,09,22,15,11,11.20
2007,09,22,15,12,11.10
2007,09,22,15,13,11.10
2007,09,22,15,14,11.10
2007,09,22,15,15,11.10
2007,09,22,15,16,11.10
2007,09,22,15,17,11.00
2007,09,22,15,18,11.00
2007,09,22,15,19,10.90
2007,09,22,15,20,10.90
2007,09,22,15,21,10.90
2007,09,22,15,22,10.90
2007,09,22,15,23,10.80
2007,09,22,15,24,10.80
2007,09,22,15,25,10.80
2007,09,22,15,26,10.80
2007,09,22,15,27,10.80
2007,09,22,15,28,10.80
2007,09,22,15,29,10.80
2007,09,22,15,30,10.70
2007,09,22,15,31,10.70
2007,09,22,15,32,10.70
2007,09,22,15,33,10.60
2007,09,22,15,34,10.60
2007,09,22,15,35,10.50
2007,09,22,15,36,10.40
2007,09,22,15,37,10.40
2007,09,22,15,38,10.40
2007,09,22,15,39,10.30
2007,09,22,15,40,10.30
2007,09,22,15,41,10.30
2007,09,22,15,42,10.30
2007,09,22,15,43,10.30
2007,09,22,15,44,10.30
2007,09,22,15,45,10.30
2007,09,22,15,46,10.30
2007,09,22,15,47,10.30
2007,09,22,15,48,10.30
2007,09,22,15,49,10.30
2007,09,22,15,50,10.30
2007,09,22,15,51,10.40
2007,09,22,15,52,10.40
2007,09,22,15,53,10.50
2007,09,22,15,54,10.50
2007,09,22,15,55,10.60
2007,09,22,15,56,10.60
2007,09,22,15,57,10.70
2007,09,22,15,58,10.70
2007,09,22,15,59,10.80
2007,09,22,16,00,10.80
2007,09,22,16,01,10.90
2007,09,22,16,02,10.90
2007,09,22,16,03,10.90
2007,09,22,16,04,11.00
2007,09,22,16,05,11.00
2007,09,22,16,06,11.10
2007,09,22,16,07,11.10
2007,09,22,16,08,11.20
2007,09,22,16,09,11.20
2007,09,22,16,10,11.20
2007,09,22,16,11,11.30
2007,09,22,16,12,11.30
2007,09,22,16,13,11.30
2007,09,22,16,14,11.40
2007,09,22,16,15,11.40
2007,09,22,16,16,11.50
2007,09,22,16,17,11.50
2007,09,22,16,18,11.60
2007,09,22,16,19,11.60
2007,09,22,16,20,11.70
2007,09,22,16,21,11.80
2007,09,22,16,22,11.80
2007,09,22,16,23,11.90
2007,09,22,16,24,11.90
2007,09,22,16,25,12.00
2007,09,22,16,26,12.10
2007,09,22,16,27,12.20
2007,09,22,16,28,12.20
2007,09,22,16,29,12.30
2007,09,22,16,30,12.30
2007,09,22,16,31,12.40
2007,09,22,16,32,12.40
2007,09,22,16,33,12.50
2007,09,22,16,34,12.60
2007,09,22,16,35,12.60
2007,09,22,16,36,12.60
2007,09,22,16,37,12.70
2007,09,22,16,38,12.70
2007,09,22,16,39,12.70
2007,09,22,16,40,12.70
2007,09,22,16,41,12.70
2007,09,22,16,42,12.80
2007,09,22,16,43,12.80
2007,09,22,16,44,12.80
2007,09,22,16,45,12.80
2007,09,22,16,46,12.80
2007,09,22,16,47,12.80
2007,09,22,16,48,12.80
2007,09,22,16,49,12.80
2007,09,22,16,50,12.70
2007,09,22,16,51,12.70
2007,09,22,16,52,12.70
2007,09,22,16,53,12.70
2007,09,22,16,54,12.60
2007,09,22,16,55,12.60
2007,09,22,16,56,12.60
2007,09,22,16,57,12.50
2007,09,22,16,58,12.50
2007,09,22,16,59,12.40
2007,09,22,17,00,12.40
2007,09,22,17,01,12.40
2007,09,22,17,02,12.40
2007,09,22,17,03,12.40
2007,09,22,17,04,12.40
2007,09,22,17,05,12.40
2007,09,22,17,06,12.40
2007,09,22,17,07,12.50
2007,09,22,17,08,12.50
2007,09,22,17,09,12.50
2007,09,22,17,10,12.60
2007,09,22,17,11,12.60
2007,09,22,17,12,12.60
2007,09,22,17,13,12.70
2007,09,22,17,14,12.70
2007,09,22,17,15,12.70
2007,09,22,17,16,12.70
2007,09,22,17,17,12.80
2007,09,22,17,18,12.80
2007,09,22,17,19,12.80
2007,09,22,17,20,12.90
2007,09,22,17,21,12.90
2007,09,22,17,22,12.90
2007,09,22,17,23,12.90
2007,09,22,17,24,12.90
2007,09,22,17,25,13.00
2007,09,22,17,26,13.00
2007,09,22,17,27,13.10
2007,09,22,17,28,13.00
2007,09,22,17,29,13.00
2007,09,22,17,30,12.90
2007,09,22,17,31,12.90
2007,09,22,17,32,12.90
2007,09,22,17,33,12.90